EZY567K EGGP-EGAC

Flight info

Callsign EZY567K
Flight time 0h 32m
Altitude 20000
Route WAL M146 ERDUV Z198 MASOP M148 MAGEE
Aircraft A320/M-SDE3FGHIRWY/LB1

Departure

Time 2026-04-17 22:03
Airport Liverpool John Lennon Airport (EGGP)

Arrival

Time 2026-04-17 22:35
Airport George Best Belfast City Airport (EGAC)
Time Latitude Longitude Altitude Speed Heading
2026-04-17 21:53 53.33668 -2.85439 86 ft 0 kts 355°
2026-04-17 21:56 53.33658 -2.85437 85 ft 4 kts 352°
2026-04-17 21:57 53.33635 -2.85435 87 ft 3 kts 33°
2026-04-17 21:57 53.33618 -2.85463 88 ft 4 kts 69°
2026-04-17 21:57 53.33613 -2.85506 88 ft 4 kts 90°
2026-04-17 21:57 53.33613 -2.85538 85 ft 1 kts 85°
2026-04-17 21:58 53.33612 -2.85542 89 ft 0 kts 85°
2026-04-17 21:59 53.33613 -2.85539 89 ft 0 kts 85°
2026-04-17 22:00 53.33593 -2.85511 86 ft 9 kts 166°
2026-04-17 22:00 53.33520 -2.85493 85 ft 12 kts 144°
2026-04-17 22:00 53.33512 -2.85341 86 ft 21 kts 86°
2026-04-17 22:01 53.33526 -2.85053 89 ft 26 kts 86°
2026-04-17 22:01 53.33539 -2.84739 83 ft 29 kts 85°
2026-04-17 22:01 53.33557 -2.84389 74 ft 32 kts 85°
2026-04-17 22:01 53.33572 -2.84016 70 ft 33 kts 86°
2026-04-17 22:02 53.33590 -2.83668 82 ft 25 kts 85°
2026-04-17 22:02 53.33598 -2.83410 91 ft 17 kts 97°
2026-04-17 22:02 53.33516 -2.83299 86 ft 18 kts 174°
2026-04-17 22:02 53.33438 -2.83403 83 ft 18 kts 267°
2026-04-17 22:03 53.33413 -2.83916 81 ft 85 kts 265°
2026-04-17 22:03 53.33345 -2.85358 147 ft 151 kts 262°
2026-04-17 22:03 53.33264 -2.87097 998 ft 154 kts 263°
2026-04-17 22:03 53.33158 -2.88958 1499 ft 170 kts 260°
2026-04-17 22:04 53.33035 -2.91086 1852 ft 197 kts 263°
2026-04-17 22:04 53.33309 -2.93500 2331 ft 228 kts 288°
2026-04-17 22:04 53.34027 -2.95954 3107 ft 240 kts 292°
2026-04-17 22:04 53.34794 -2.98468 4016 ft 244 kts 293°
2026-04-17 22:05 53.35557 -3.00992 4957 ft 248 kts 293°
2026-04-17 22:05 53.36332 -3.03610 5820 ft 253 kts 292°
2026-04-17 22:05 53.37111 -3.06298 6708 ft 258 kts 292°
2026-04-17 22:05 53.37898 -3.09028 7581 ft 261 kts 291°
2026-04-17 22:06 53.38683 -3.11715 8526 ft 261 kts 291°
2026-04-17 22:06 53.39685 -3.14308 9386 ft 272 kts 307°
2026-04-17 22:06 53.41015 -3.16604 10216 ft 277 kts 308°
2026-04-17 22:06 53.42418 -3.18999 10554 ft 300 kts 308°
2026-04-17 22:07 53.43930 -3.21570 10952 ft 316 kts 309°
2026-04-17 22:07 53.45493 -3.24213 11649 ft 322 kts 308°
2026-04-17 22:07 53.47082 -3.26902 12399 ft 326 kts 308°
2026-04-17 22:07 53.48685 -3.29633 13134 ft 330 kts 308°
2026-04-17 22:08 53.50305 -3.32402 13875 ft 335 kts 307°
2026-04-17 22:08 53.51942 -3.35211 14535 ft 338 kts 307°
2026-04-17 22:08 53.53596 -3.38055 15195 ft 342 kts 307°
2026-04-17 22:08 53.55270 -3.40934 15851 ft 345 kts 307°
2026-04-17 22:09 53.56942 -3.43802 16486 ft 349 kts 307°
2026-04-17 22:09 53.58504 -3.46897 17122 ft 345 kts 298°
2026-04-17 22:09 53.59907 -3.50212 17765 ft 348 kts 297°
2026-04-17 22:09 53.61315 -3.53553 18404 ft 352 kts 297°
2026-04-17 22:10 53.62733 -3.56932 18956 ft 355 kts 297°
2026-04-17 22:10 53.64165 -3.60344 19517 ft 358 kts 297°
2026-04-17 22:10 53.65613 -3.63790 19974 ft 361 kts 297°
2026-04-17 22:10 53.67062 -3.67233 20058 ft 354 kts 297°
2026-04-17 22:11 53.68469 -3.70566 20100 ft 344 kts 297°
2026-04-17 22:11 53.69846 -3.73844 20086 ft 341 kts 296°
2026-04-17 22:11 53.71208 -3.77114 20068 ft 340 kts 296°
2026-04-17 22:11 53.72563 -3.80382 20066 ft 339 kts 296°
2026-04-17 22:12 53.73899 -3.83606 20065 ft 339 kts 296°
2026-04-17 22:12 53.75251 -3.86869 20059 ft 339 kts 296°
2026-04-17 22:12 53.76602 -3.90132 20068 ft 339 kts 296°
2026-04-17 22:12 53.77955 -3.93400 20066 ft 339 kts 296°
2026-04-17 22:13 53.79307 -3.96671 20059 ft 339 kts 296°
2026-04-17 22:13 53.80658 -3.99940 20048 ft 339 kts 296°
2026-04-17 22:13 53.82010 -4.03213 20063 ft 339 kts 296°
2026-04-17 22:13 53.83358 -4.06488 20055 ft 339 kts 296°
2026-04-17 22:14 53.84706 -4.09768 20063 ft 339 kts 296°
2026-04-17 22:14 53.86074 -4.13042 20063 ft 342 kts 300°
2026-04-17 22:14 53.87753 -4.15979 20053 ft 353 kts 312°
2026-04-17 22:14 53.89843 -4.18292 20049 ft 366 kts 326°
2026-04-17 22:15 53.92223 -4.19941 20107 ft 371 kts 330°
2026-04-17 22:15 53.94629 -4.21513 20062 ft 370 kts 330°
2026-04-17 22:15 53.97024 -4.23083 20052 ft 369 kts 330°
2026-04-17 22:15 53.99415 -4.24660 20047 ft 369 kts 330°
2026-04-17 22:16 54.01810 -4.26243 20041 ft 369 kts 330°
2026-04-17 22:16 54.04206 -4.27828 20033 ft 369 kts 330°
2026-04-17 22:16 54.06601 -4.29418 20032 ft 369 kts 330°
2026-04-17 22:16 54.08989 -4.31015 20029 ft 369 kts 330°
2026-04-17 22:17 54.11382 -4.32616 20029 ft 369 kts 330°
2026-04-17 22:17 54.13681 -4.34401 19844 ft 355 kts 321°
2026-04-17 22:17 54.15658 -4.36740 19597 ft 337 kts 310°
2026-04-17 22:17 54.17234 -4.39482 19369 ft 321 kts 299°
2026-04-17 22:18 54.18520 -4.42529 19125 ft 315 kts 296°
2026-04-17 22:18 54.19774 -4.45588 18874 ft 313 kts 296°
2026-04-17 22:18 54.21023 -4.48639 18633 ft 312 kts 296°
2026-04-17 22:18 54.22265 -4.51672 18392 ft 311 kts 296°
2026-04-17 22:19 54.23504 -4.54692 18118 ft 310 kts 296°
2026-04-17 22:19 54.24741 -4.57705 17849 ft 309 kts 296°
2026-04-17 22:19 54.25968 -4.60705 17568 ft 308 kts 296°
2026-04-17 22:19 54.27193 -4.63702 17295 ft 307 kts 297°
2026-04-17 22:20 54.28414 -4.66693 17023 ft 306 kts 296°
2026-04-17 22:20 54.29628 -4.69684 16752 ft 304 kts 296°
2026-04-17 22:20 54.30831 -4.72656 16487 ft 303 kts 297°
2026-04-17 22:20 54.32025 -4.75600 16227 ft 302 kts 297°
2026-04-17 22:21 54.33227 -4.78565 15966 ft 302 kts 297°
2026-04-17 22:21 54.34417 -4.81506 15740 ft 298 kts 297°
2026-04-17 22:21 54.35594 -4.84414 15413 ft 296 kts 297°
2026-04-17 22:21 54.36761 -4.87305 15056 ft 294 kts 297°
2026-04-17 22:22 54.37925 -4.90190 14694 ft 294 kts 297°
2026-04-17 22:22 54.39086 -4.93074 14331 ft 293 kts 297°
2026-04-17 22:22 54.40229 -4.95920 13995 ft 293 kts 298°
2026-04-17 22:22 54.41387 -4.98808 13589 ft 293 kts 298°
2026-04-17 22:23 54.42541 -5.01688 13208 ft 292 kts 298°
2026-04-17 22:23 54.43691 -5.04558 12849 ft 290 kts 298°
2026-04-17 22:23 54.44836 -5.07406 12471 ft 289 kts 298°
2026-04-17 22:23 54.45981 -5.10227 12091 ft 287 kts 299°
2026-04-17 22:24 54.47121 -5.13033 11737 ft 286 kts 299°
2026-04-17 22:24 54.48255 -5.15827 11366 ft 284 kts 299°
2026-04-17 22:24 54.49382 -5.18609 10993 ft 283 kts 299°
2026-04-17 22:24 54.50538 -5.21350 10620 ft 284 kts 305°
2026-04-17 22:25 54.51993 -5.23690 10232 ft 289 kts 316°
2026-04-17 22:25 54.53575 -5.25822 9842 ft 289 kts 316°
2026-04-17 22:25 54.55146 -5.27946 9449 ft 286 kts 316°
2026-04-17 22:25 54.56706 -5.30064 9072 ft 284 kts 316°
2026-04-17 22:26 54.58250 -5.32169 8684 ft 281 kts 316°
2026-04-17 22:26 54.59788 -5.34269 8277 ft 279 kts 316°
2026-04-17 22:26 54.61310 -5.36343 7862 ft 278 kts 316°
2026-04-17 22:26 54.62823 -5.38407 7434 ft 277 kts 316°
2026-04-17 22:27 54.64319 -5.40447 7031 ft 273 kts 316°
2026-04-17 22:27 54.65791 -5.42454 6510 ft 266 kts 316°
2026-04-17 22:27 54.67241 -5.44437 6078 ft 265 kts 316°
2026-04-17 22:27 54.68681 -5.46413 5662 ft 263 kts 316°
2026-04-17 22:28 54.70108 -5.48369 5250 ft 261 kts 316°
2026-04-17 22:28 54.71525 -5.50314 4842 ft 259 kts 316°
2026-04-17 22:28 54.72933 -5.52251 4404 ft 258 kts 316°
2026-04-17 22:28 54.74332 -5.54171 4055 ft 254 kts 315°
2026-04-17 22:29 54.75684 -5.56021 3901 ft 241 kts 315°
2026-04-17 22:29 54.76959 -5.57769 3814 ft 226 kts 313°
2026-04-17 22:29 54.77885 -5.59764 3753 ft 202 kts 289°
2026-04-17 22:29 54.78207 -5.61963 3699 ft 183 kts 268°
2026-04-17 22:30 54.78032 -5.64052 3688 ft 166 kts 250°
2026-04-17 22:30 54.77529 -5.65779 3631 ft 161 kts 241°
2026-04-17 22:30 54.76975 -5.67460 3577 ft 160 kts 241°
2026-04-17 22:30 54.76426 -5.69130 3524 ft 159 kts 240°
2026-04-17 22:31 54.75651 -5.70505 3365 ft 164 kts 221°
2026-04-17 22:31 54.74736 -5.71672 3078 ft 163 kts 220°
2026-04-17 22:31 54.73816 -5.72809 2855 ft 160 kts 220°
2026-04-17 22:31 54.72940 -5.73872 2617 ft 147 kts 220°
2026-04-17 22:32 54.72126 -5.74857 2449 ft 140 kts 220°
2026-04-17 22:32 54.71333 -5.75815 2240 ft 138 kts 220°
2026-04-17 22:32 54.70550 -5.76759 2047 ft 137 kts 219°
2026-04-17 22:32 54.69769 -5.77700 1861 ft 137 kts 219°
2026-04-17 22:33 54.68990 -5.78636 1672 ft 135 kts 219°
2026-04-17 22:33 54.68216 -5.79567 1474 ft 137 kts 219°
2026-04-17 22:33 54.67437 -5.80503 1269 ft 134 kts 217°
2026-04-17 22:33 54.66673 -5.81420 1078 ft 132 kts 216°
2026-04-17 22:34 54.65923 -5.82323 891 ft 131 kts 215°
2026-04-17 22:34 54.65174 -5.83231 703 ft 129 kts 215°
2026-04-17 22:34 54.64436 -5.84112 527 ft 130 kts 215°
2026-04-17 22:34 54.63695 -5.84991 340 ft 130 kts 215°
2026-04-17 22:35 54.62961 -5.85877 166 ft 128 kts 215°
2026-04-17 22:35 54.62235 -5.86744 33 ft 122 kts 215°
2026-04-17 22:35 54.61679 -5.87408 24 ft 58 kts 215°
2026-04-17 22:35 54.61466 -5.87662 20 ft 32 kts 214°
2026-04-17 22:36 54.61346 -5.87792 21 ft 14 kts 193°
2026-04-17 22:36 54.61272 -5.87696 22 ft 13 kts 127°
2026-04-17 22:36 54.61278 -5.87574 23 ft 11 kts 40°
2026-04-17 22:36 54.61334 -5.87500 23 ft 10 kts 37°
2026-04-17 22:37 54.61384 -5.87434 23 ft 8 kts 44°
2026-04-17 22:37 54.61419 -5.87362 23 ft 7 kts 42°
2026-04-17 22:37 54.61452 -5.87307 23 ft 5 kts 73°
2026-04-17 22:37 54.61446 -5.87248 25 ft 4 kts 116°
2026-04-17 22:38 54.61436 -5.87224 24 ft 1 kts 125°
2026-04-17 22:38 54.61433 -5.87219 24 ft 0 kts 125°
2026-04-17 22:39 54.61433 -5.87218 24 ft 0 kts 125°
2026-04-17 22:39 54.61432 -5.87217 24 ft 0 kts 125°